Lid_Strength_Index
-0 1 3 6 10 11 14 12 10 10 10 8 6 7 9 8 10 12 3 1 -0 -0 -1 -1 -1 -2 -1 -2 -2 -2 -2 -2 -2 -2 -2 -2 -2 -2 -2 -2 -3 -3 -2 -2 -2 -2 -2 -2 -2
1 1 6 9 13 14 14 11 11 9 7 6 6 7 8 10 5 4 3 0 -0 -0 -1 -1 -1 -2 -1 -2 -2 -2 -2 -2 -2 -2 -2 -2 -2 -2 -2 -2 -2 -2 -2 -2 -2 -2 -2 -2 -2
2 4 9 11 14 15 13 11 9 8 7 7 8 6 7 8 5 3 2 0 -0 -0 -1 -1 -1 -2 -2 -2 -2 -2 -2 -2 -2 -2 -2 -2 -2 -2 -2 -2 -2 -2 -2 -2 -2 -2 -2 -2 -2
4 6 8 13 14 13 11 9 8 8 8 7 7 9 6 3 3 2 1 0 0 -0 -0 -0 -1 -2 -2 -2 -2 -2 -2 -2 -2 -2 -2 -2 -2 -2 -2 -2 -2 -2 -2 -2 -2 -2 -2 -1 -2
5 8 11 14 14 13 11 8 7 8 8 8 7 10 8 3 2 2 1 0 0 0 -0 -0 -1 -1 -2 -2 -2 -2 -2 -2 -2 -2 -2 -2 -3 -2 -2 -2 -2 -2 -2 -2 -2 -2 -1 -1 -1
7 8 13 14 14 12 10 9 8 9 8 8 8 8 8 3 3 3 2 1 0 0 -0 -0 1 -0 -1 -2 -2 -2 -2 -2 -2 -2 -2 -2 -3 -2 -2 -3 -2 -2 -2 -2 -2 -1 -1 -1 -1
9 10 13 13 13 12 10 9 10 10 9 9 6 9 8 5 2 2 3 1 1 -0 -0 0 -0 0 0 -1 -1 -1 -2 -2 -2 -2 -2 -2 -2 -2 -2 -2 -2 -2 -2 -2 -2 -1 -1 -1 -1
8 10 12 12 12 12 10 9 9 9 9 6 5 9 9 4 2 2 2 2 2 1 0 0 0 0 0 0 1 -0 -1 -1 -1 -2 -1 -1 -1 -1 -2 -1 -2 -2 -2 -1 -1 -1 -1 -1 -1
6 11 13 12 11 11 10 10 9 8 8 6 5 6 4 3 2 3 3 5 3 1 1 0 0 0 0 0 1 1 0 -0 -1 -0 0 1 1 0 0 -0 -1 -2 -2 -2 -1 -1 -2 -1 -1
8 11 11 10 10 10 9 9 10 10 9 8 7 4 3 3 3 4 4 5 4 3 2 0 0 0 0 -1 0 0 -0 0 0 0 1 0 1 1 0 1 -0 -1 -1 -1 -1 -2 -2 -0 2
8 11 8 9 9 8 9 10 9 10 11 8 7 6 4 4 4 4 4 4 4 4 3 2 1 0 0 -0 1 1 1 1 1 1 1 1 1 1 1 2 1 1 1 1 0 0 1 2 2
10 8 8 7 8 8 9 8 10 10 10 8 7 4 4 4 4 4 4 4 5 4 3 3 1 1 0 0 -0 -0 1 1 2 1 1 2 2 2 2 2 2 2 2 3 3 3 2 2 2
10 8 7 7 7 8 8 9 9 9 8 6 4 4 5 4 4 4 3 3 4 3 2 3 2 2 1 0 0 0 0 1 1 1 1 1 2 3 2 2 3 3 3 3 3 3 3 3 3
9 9 8 8 7 7 8 9 8 8 8 7 5 5 5 4 4 4 4 3 4 4 3 2 3 2 1 1 1 0 0 0 1 1 1 1 1 2 2 3 3 3 3 3 3 3 3 2 2
8 10 9 9 8 8 7 10 9 6 7 7 6 5 5 4 3 4 3 3 3 3 4 3 3 3 2 1 1 1 0 0 1 1 1 1 1 2 2 2 3 3 3 3 3 3 3 3 2
10 11 14 10 9 8 8 12 9 6 7 6 7 8 7 5 4 3 2 2 2 3 4 3 2 3 3 2 1 1 1 1 1 1 1 1 1 2 3 3 3 4 3 3 3 3 3 3 4
12 16 14 12 10 10 9 12 8 8 8 8 8 8 7 7 7 4 3 3 2 3 4 3 3 3 3 3 2 1 1 2 1 1 2 2 2 2 2 3 3 4 5 5 4 4 4 4 4
16 14 14 14 12 12 12 11 10 8 9 9 9 9 9 7 6 6 6 3 2 3 4 4 3 3 3 3 3 2 2 2 2 2 2 2 2 2 2 3 3 4 5 5 6 5 5 4 3
11 13 13 13 10 12 13 13 10 9 10 10 10 10 10 9 6 6 6 5 4 3 3 4 4 3 3 4 4 4 3 2 3 3 2 2 2 3 3 3 4 5 5 5 6 5 6 5 5
11 13 14 11 10 11 11 12 10 9 9 9 9 9 9 9 7 6 7 7 5 4 2 3 3 3 3 3 3 3 3 3 3 2 3 3 2 3 3 3 3 4 5 6 6 6 6 5 5
12 13 13 13 11 11 12 13 12 9 9 8 8 7 7 8 7 7 7 7 7 6 4 3 2 3 3 3 3 4 4 4 4 4 3 3 3 3 3 2 3 4 4 5 5 5 6 6 6
15 10 11 12 14 17 13 18 14 12 11 10 9 8 7 6 6 6 7 7 7 6 6 3 2 2 3 3 3 3 3 4 3 3 3 2 3 3 3 3 3 3 4 4 4 4 5 6 6
13 9 11 12 14 16 16 17 16 13 13 11 9 9 8 7 6 6 7 6 5 5 5 4 3 2 2 3 3 3 3 3 3 3 4 3 2 2 2 2 3 3 3 3 3 4 4 4 5
9 11 12 12 14 18 15 16 18 15 12 11 11 10 9 9 8 7 6 6 6 8 8 7 6 6 4 3 3 3 3 3 3 3 4 3 3 2 2 2 3 3 3 3 3 3 4 4 4
10 13 19 19 19 20 16 16 15 14 12 12 11 10 9 9 8 8 8 7 8 9 8 8 8 8 7 7 7 5 4 3 2 2 2 3 3 3 3 2 2 2 2 3 3 3 3 3 4
12 13 18 22 21 20 16 18 16 12 11 11 10 11 9 10 10 9 9 9 9 9 9 9 8 8 8 8 8 8 8 7 6 4 1 1 1 1 2 2 2 2 2 2 2 3 2 2 3
13 15 11 16 21 20 19 17 14 13 13 11 11 10 10 10 10 10 9 9 9 9 9 9 9 8 8 8 8 8 8 8 8 7 6 4 3 2 1 0 2 2 2 2 2 2 2 2 1
11 10 16 15 22 23 20 19 18 16 13 12 12 11 10 10 10 10 9 9 9 9 9 8 8 8 8 7 7 7 7 7 7 7 7 6 6 5 4 3 1 1 1 2 2 1 2 2 2
12 14 13 13 16 19 22 19 15 13 12 11 12 11 10 10 10 10 11 10 9 10 9 9 8 8 8 7 7 8 8 7 7 7 7 6 6 5 5 4 3 2 1 1 2 2 1 1 2
10 12 12 17 18 16 17 17 13 13 12 12 11 10 10 9 9 11 11 10 10 10 9 9 8 8 7 7 8 8 8 7 7 7 7 6 6 6 6 5 5 4 3 1 1 1 1 2 2